Location: Vinland
(47.7731°N, 122.6974°W)
Time: 00:38:42
(UTC+00:00)

Transit 4A - Pass Details

Date: 01 April 2023
Orbit: 864 x 979 km, 66.8° (Epoch: 29 May)

Event Time Altitude Azimuth Distance (km) Brightness Sun altitude
Exits shadow 12:02:05 - 178° (S) 3,352 10.6 -17.9°
Reaches altitude 10° 12:04:35 10° 169° (SSE) 2,504 10.0 -17.6°
Maximum altitude 12:09:30 30° 110° (ESE) 1,531 9.5 -16.8°
Drops below altitude 10° 12:14:31 10° 52° (NE) 2,561 11.5 -16.1°
Sets 12:17:19 0° 42° (NE) 3,522 12.2 -15.6°
